Regional Weather Roundup
Issued by NWS

Home | Current Version | Previous Version | Graphics & Text | Print | Product List | Glossary On
Versions: 1 2 3 4 5 6 7 8 9 10 11 12 13 14 15 16 17 18 19 20 21 22 23 24 25 26 27 28 29 30 31 32 33 34 35 36 37 38 39 40 41 42 43 44 45 46 47 48 49 50
000
ASUS43 KIND 291000
RWRIN

WEATHER ROUNDUP FOR INDIANA
NATIONAL WEATHER SERVICE INDIANAPOLIS IN
600 AM EDT MON MAY 29 2017

NOTE: "FAIR" INDICATES FEW OR NO CLOUDS BELOW 12,000 FEET WITH NO
SIGNIFICANT WEATHER AND/OR OBSTRUCTIONS TO VISIBILITY.

* - STATION DOES NOT REPORT WEATHER SUCH AS PRECIPITATION OR FOG.

+ - STATION NOT QUALITY CONTROLLED BY THE NATIONAL WEATHER SERVICE.
    USE DATA WITH CAUTION...ESPECIALLY DEWPOINT AND RELATIVE
    HUMIDITY OBSERVATIONS.

INZ001>003-010>013-019-020-291100-
NORTHWEST INDIANA

CITY           SKY/WX    TMP DP  RH WIND       PRES   REMARKS
GARY /AIRPORT/ PTCLDY    59  50  72 CALM      29.79S
MICHIGAN CITY+ MOCLDY    55  52  88 CALM      29.79S
MONTICELLO +   CLOUDY    58  54  84 SW7       29.81S
RENSSELAER +   CLEAR     57  52  82 S6        29.82R

$$

LMZ046-743>745-291100-
SOUTHERN LAKE MICHIGAN

STATION/POSITION TIME  TEMP    WIND        PRES    WAVE
                       AIR SEA DIR/SP/G            HT
                 (UTC) (F)     (DEG/KT/KT) (MB)    (FT)
BURNS HARBOR     0940   63     210/ 11/ 13 1008.8F
MICHIGAN CITY    0930   63     200/ 12/ 13   N/A
5NW MICH CITY    0950   59 57  210/  6/  6   N/A     1

$$

INZ004-005-014>016-021>024-291100-
NORTH CENTRAL INDIANA

CITY           SKY/WX    TMP DP  RH WIND       PRES   REMARKS
GOSHEN         MOCLDY    58  52  80 SW8       29.80R
SOUTH BEND     MOCLDY    56  53  90 SW9       29.80R

$$

INZ006>009-017-018-025>027-291100-
NORTHEAST INDIANA

CITY           SKY/WX    TMP DP  RH WIND       PRES   REMARKS
ANGOLA *+      CLEAR     55  46  71 CALM      29.79S
FORT WAYNE     PTCLDY    56  53  90 SW5       29.81S
KENDALLVILLE + PTCLDY    57  55  91 CALM      29.81R

$$

INZ028-029-035-036-043>045-051>053-291100-
WEST CENTRAL INDIANA

CITY           SKY/WX    TMP DP  RH WIND       PRES   REMARKS
GREENCASTLE +  CLEAR     55  54  94 CALM      29.88R
LAFAYETTE      PTCLDY    55  54  96 CALM      29.83R
TERRE HAUTE    PTCLDY    60  54  80 SW7       29.88R

$$

INZ030>032-037>040-046>048-054>057-064-065-291100-
CENTRAL INDIANA

CITY           SKY/WX    TMP DP  RH WIND       PRES   REMARKS
INDIANAPOLIS   PTCLDY    57  55  93 SW8       29.87R
-EAGLE CREEK   CLEAR     56  53  90 CALM      29.86R
KOKOMO +       PTCLDY    58  54  86 SW7       29.84R
SHELBYVILLE    CLEAR     59  56  89 S6        29.87R

$$

INZ033-034-041-042-049-050-058-059-291100-
EAST CENTRAL INDIANA

CITY           SKY/WX    TMP DP  RH WIND       PRES   REMARKS
MUNCIE         CLEAR     61  58  90 SW7       29.84S
RICHMOND +     CLEAR     57  57 100 SW7       29.88R FOG

$$

INZ060-061-067>069-081>083-085>088-291100-
SOUTHWEST INDIANA

CITY           SKY/WX    TMP DP  RH WIND       PRES   REMARKS
EVANSVILLE     CLOUDY    63  61  93 SW6       29.93R
HUNTINGBURG *+ CLOUDY    63  62  97 S6        29.93R FOG

$$

INZ062-063-066-070>080-084-089>092-291100-
SOUTH CENTRAL AND SOUTHEAST INDIANA

CITY           SKY/WX    TMP DP  RH WIND       PRES   REMARKS
BLOOMINGTON    CLOUDY    61  56  83 SW6       29.90R
MADISON *+     CLOUDY    61  59  94 S3        29.93R
SEYMOUR +      CLOUDY    63  61  94 CALM      29.90R

$$





USA.gov is the U.S. government's official web portal to all federal, state and local government web resources and services.